User: anonymous   Login
Location: Prairie State College
(41.5244°N, 87.6382°W)
Time: 04:24:48
(UTC-06:00)
Language:

MSX - Orbit

View from above orbital plane
View from above orbital plane
View from above satellite
View from above satellite

Ground track
Ground track

The orbit data is extracted from the following two-line orbital elements,

1 23851U 96024A   17306.73664129 0.00000020  00000-0  14087-4 0    04
2 23851  98.6748 304.9101 0008504 306.8336  53.1662 13.98059363    07
Epoch (UTC): 02 November 2017 17:40:45
Eccentricity: 0.0008504
inclination: 98.6748°
perigee height: 894 km
apogee height: 907 km
right ascension of ascending node: 304.9101°
argument of perigee: 306.8336°
revolutions per day: 13.98059363
mean anomaly at epoch: 53.1662°
orbit number at epoch: 0

The dashed part of the orbit path shows where the satellite is in the earth's shadow,  

DLR